Regional Weather Roundup
Issued by NWS Grand Forks, ND

Home | Current Version | Previous Version | Text Only | Print | Product List | Glossary On
Versions: 1 2 3 4 5 6 7 8 9 10 11 12 13 14 15 16 17 18 19 20 21 22 23 24 25 26 27 28 29 30 31 32 33 34 35 36 37 38 39 40 41 42 43 44 45 46 47 48 49 50
000
ASUS43 KFGF 281331
RWRFGF
PRAIRIE TO PINES  WEATHER ROUNDUP
NATIONAL WEATHER SERVICE EASTERN NORTH DAKOTA/GRAND FORKS ND
800 AM CDT THU MAY 28 2015

 **SATELLITE DATA USED TO AUGMENT SKY COVER AT AUTOMATED STATIONS**
 *****  WEATHER ACROSS EASTERN NORTH DAKOTA  *****

CITY           SKY/WX    TMP DP  RH WIND       PRES   REMARKS
GRAND FORKS    CLOUDY    57  55  93 E9        29.91F
GRAND FRKS AFB CLOUDY    57  55  94 SE5       29.91F
GRAND FRKS NWS   N/A     57 N/A N/A E6          N/A
DEVILS LAKE    MOSUNNY   63  55  77 SE14      29.89F
FARGO          LGT RAIN  61  58  90 E5        29.92F
WAHPETON ARPT  CLOUDY    64  54  68 E5        29.94F
$$

 ***** WEATHER ACROSS CENTRAL AND WESTERN NORTH DAKOTA  *****

CITY           SKY/WX    TMP DP  RH WIND       PRES   REMARKS
BISMARCK       PTSUNNY   63  57  81 W3        29.88F
MINOT          PTSUNNY   59  57  93 SE3       29.85F
JAMESTOWN      CLOUDY    61  58  90 E9        29.90F
MINOT AFB      CLOUDY    59  59 100 SE5       29.84F
GARRISON         N/A     59  57  93 SW6       29.87S
WILLISTON      MOSUNNY   57  55  93 SW7       29.88S
DICKINSON      CLOUDY    53  51  93 NW3       29.89S
HETTINGER      CLOUDY    52  51  97 CALM      29.92R
$$

 *****  OTHER AIRPORT OBSERVATIONS IN OUR AREA  *****

CITY           SKY/WX    TMP DP  RH WIND       PRES   REMARKS
WALHALLA         N/A     52  52 100 MISG      29.93F
GRAFTON AIRPOR CLOUDY    55  55 100 E8        29.92F
VALLEY CITY AR PTSUNNY   61  61 100 SE6       29.91F
CANDO          PTSUNNY   61  59  94 SE13      29.90F
CAVALIER APRT  PTSUNNY   55  55 100 E5        29.92F
GWINNER        NOT AVBL
SHEYENNE NWR     N/A     60  58  94 SE6       29.95S
ROLLA          CLOUDY    54  54 100 SE5       29.91F
 ***** THE ABOVE OBSERVATIONS ARE NON NWS ARE NOT QUALITY
       CONTROLLED AND MAY MIS-REPORT RAIN FOR SNOW...
$$

  *****  WEATHER ACROSS NORTHERN MINNESOTA  *****

CITY           SKY/WX    TMP DP  RH WIND       PRES   REMARKS
FLAG ISLAND    LGT RAIN  55  52  88 S6        30.00R
WARROAD        RAIN      54  50  87 CALM      30.00F
ROSEAU         RAIN      54  48  82 E7        29.98F
HALLOCK        LGT RAIN  57  55  94 E8        29.93S
THF RVR FALLS  CLOUDY    57  55  94 E8        29.96F
BAUDETTE       LGT RAIN  53  49  86 E3        30.00R
WASKISH        DRIZZLE   57  54  88 CALM      29.99F
CROOKSTON      RAIN      59  57  94 E9        29.94F
STEPHEN NDAWN    N/A     57  55  94 E6          N/A
GREENBUSH NDAW   N/A     55  54  94 E6          N/A
$$
  *****  WEATHER ACROSS CENTRAL AND WEST MINNESOTA  *****

CITY           SKY/WX    TMP DP  RH WIND       PRES   REMARKS
FOSSTON        RAIN      57  50  77 CALM      29.99S
BEMIDJI        DRIZZLE   59  53  81 SW5       30.02R
PARK RAPIDS    CLOUDY    63  53  70 E5        29.98R
ELBOW LAKE     FAIR      68  54  61 S10       29.97F
WADENA         PTSUNNY   66  55  68 S6        29.98S
DETROIT LAKES  CLOUDY    63  57  82 E3        29.98S
MOORHEAD       CLOUDY    61  57  88 E8        29.92F
FERGUS FALLS   PTSUNNY   66  55  68 S5        29.96S
MORRIS MN      MOSUNNY   66  54  63 S9        29.97S
STAPLES        PTSUNNY   64  54  68 S5        30.00R
$$
  *****  WEATHER ELSEWHERE ACROSS MINNESOTA  *****

CITY           SKY/WX    TMP DP  RH WIND       PRES   REMARKS
DULUTH         MOSUNNY   48  41  76 E13       30.10F
INTRNTL FALLS  CLOUDY    55  48  77 SE5       30.01F
ELY            NOT AVBL
CLOQUET        MOSUNNY   46  39  76 E10G16    30.09S
WHEATON        PTSUNNY   68  54  60 S8        29.96F
BRAINERD       CLOUDY    60  52  74 SE9       30.03R
HIBBING        PTSUNNY   56  46  69 SE14      30.06F
ALEXANDRIA     PTSUNNY   68  52  56 S8        30.01S
SAINT CLOUD    MOSUNNY   65  57  75 S7        30.03S
MINNEAPOLIS    PTSUNNY   70  55  59 S6        30.06S
$$

  *****  WEATHER ACROSS SOUTH DAKOTA  *****

CITY           SKY/WX    TMP DP  RH WIND       PRES   REMARKS
SIOUX FALLS    CLOUDY    67  53  61 S13       30.02S
BROOKINGS      CLOUDY    68  54  60 S14       30.03R
WATERTOWN      MOSUNNY   65  54  67 S10       29.97F
HURON            N/A    N/A N/A N/A MISG      29.95F
SISSETON         N/A     71  56  58 SW18      29.92F
ABERDEEN       PTSUNNY   64  57  78 S15       29.92R
MITCHELL       PTSUNNY   65  57  75 SE13      29.98S
PIERRE         MOSUNNY   62  57  83 S13       29.91R
MOBRIDGE       PTSUNNY   62  59  90 S10       29.88R
RAPID CITY     SUNNY     56  54  93 W5        29.93R
$$

  *****  SOME WEATHER IN NEARBY STATES *****

CITY           SKY/WX    TMP DP  RH WIND       PRES   REMARKS
GLASGOW MT     SUNNY     52  50  93 NW12      29.91R
GREAT FALLS MT CLOUDY    51  48  89 SW6       30.02R
CHEYENNE WY    CLOUDY    49  44  83 SW5       30.10R
SCOTTSBLUFF NE MOSUNNY   56  53  90 CALM      30.00F
OMAHA NE       CLOUDY    66  56  70 S9        30.08R
DES MOINES IA  CLOUDY    66  57  72 S8        30.13S
DAVENPORT IA   SUNNY     68  58  70 SE5       30.18R
CHICAGO IL     MOSUNNY   66  56  70 CALM      30.20R
EAU CLAIRE WI  SUNNY     64  59  83 CALM      30.10R
LA CROSSE WI   SUNNY     68  59  73 S6        30.13R
$$

  *****  SOME NATIONAL WEATHER *****

CITY           SKY/WX    TMP DP  RH WIND       PRES   REMARKS
LA GUARDIA NY  PTSUNNY   72  63  73 S9        30.17R
RALEIGH NC     PTSUNNY   72  68  87 W5        30.24S
ATLANTA GA     CLOUDY    69  64  84 E6        30.23R
NEW ORLEANS LA MOSUNNY   79  71  76 CALM      30.11R
OKLAHOMA CITY  CLOUDY    65  62  90 E13       30.02F
ALBUQUERQUE NM MOSUNNY   57  37  47 E3        30.13R
SALT LAKE CITY CLOUDY    53  48  83 N10       30.13R
LOS ANGELES CA CLOUDY    58  55  90 SW3       29.98R
BOISE ID       CLEAR     53  43  68 SE8       30.07R
SEATTLE WA     CLEAR     55  52  89 CALM      30.08R
$$

*** WEATHER ACROSS MANITOBA...SASKATCHEWAN AND ONTARIO ***
                ***ONTARIO***

CITY           SKY/WX    TMP DP  RH WIND       PRES   REMARKS
GERALDTON      MOSUNNY   46  34  61 E9        30.24S
THUNDER BAY    MOSUNNY   48  41  76 E12G17    30.21R
SIOUX LOOKOUT  CLOUDY    50  41  71 SE8G18    30.09F
TORONTO        MOSUNNY   66  54  63 N14G21    30.19R
BIG TROUT LK   PTSUNNY   39  32  75 E7        30.24S
PICKLE LAKE    PTSUNNY   48  34  57 SE13G18   30.18F
DRYDEN         MOSUNNY   52  43  71 SE12      30.05F
KENORA         LGT RAIN  55  48  76 SE6       30.00F
$$
                *** MANITOBA***

CITY           SKY/WX    TMP DP  RH WIND       PRES   REMARKS
BRANDON        LGT RAIN  52  46  82 E7        29.93F
DAUPHIN        LGT RAIN  46  45  93 SW5       29.92F
ISLAND LAKE    PTSUNNY   46  30  53 E9G20     30.06F
PILOT MOUND      N/A     54  52  94 E10         N/A
THE PAS        CLOUDY    48  39  71 NE5       29.90F
THOMPSON       LGT RAIN  41  36  81 NE5       30.06S
WINNIPEG       LGT RAIN  54  52  94 SE6       29.96F
LYNN LAKE      LGT SNOW  34  32  93 NE22G28   30.06R WCI  22
CHURCHILL      CLOUDY    30  23  74 NE3       30.36R
GILLAM         LGT SNOW  30  25  80 E9G21     30.24S VSB 1   WCI  22
$$
                ***SASKATCHEWAN***

CITY           SKY/WX    TMP DP  RH WIND       PRES   REMARKS
ESTEVAN        CLOUDY    57  57 100 E7        29.89S FOG
KINDERSLEY     CLOUDY    54  50  87 N21G26    29.99
LLOYDMINSTER   CLOUDY    43  39  87 N22G29    30.12R
PRINCE ALBERT  CLOUDY    48  46  93 N14G22    29.97R
REGINA         PTSUNNY   57  54  88 SE10      29.93S
YORKTON        CLOUDY    54  46  76 S12G17    29.90S HAZE
N. BATTLEFORD  CLOUDY    48  46  93 N15G22    30.04R
LA RONGE       CLOUDY    37  34  87 N16G26    30.10S
SASKATOON      CLOUDY    54  50  87 N17       29.96R
SWIFT CURRENT  MOSUNNY   54  48  82 W6        29.95R
$$
NOTE: THESE ARE AUTOMATED STATIONS WITH LIMITED QUALITY CONTROL
      "FAIR" INDICATES FEW OR NO CLOUDS BELOW 12,000 FEET WITH NO
      SIGNIFICANT WEATHER AND/OR OBSTRUCTIONS TO VISIBILITY.
      SKY/WX - SKY CONDITION AND SIGNIFICANT WEATHER.
      TMP - AIR TEMPERATURE.    DP   - DEWPOINT TEMPERATURE.
      RH  - RELATIVE HUMIDITY.  PRES - PRESSURE.
      HX  - HEAT INDEX.         WCI  - WIND CHILL INDEX.
$


USA.gov is the U.S. government's official web portal to all federal, state and local government web resources and services.